EW9327 Weather Reports


time (UTC)temp
C
wind
direction
speed
KPH
gust
KPH
rain 1hr
cm
rain 24hr
cm
rain mn
cm
humidity
%
barometer
mb
20260507143025 14 99 0.0 1.6 0.00 0.00 0.00 84 1003.7
20260507142525 13 99 0.0 1.6 0.00 0.00 0.00 85 1003.7
20260507142025 13 99 0.0 1.6 0.00 0.00 0.00 86 1003.6
20260507141526 12 99 0.0 1.6 0.00 0.00 0.00 86 1003.6
20260507141026 12 99 0.0 1.6 0.00 0.00 0.00 86 1003.6
20260507140524 12 99 0.0 1.6 0.00 0.00 0.00 86 1003.6
20260507140025 11 99 0.0 1.6 0.00 0.00 0.00 87 1003.6
20260507135526 11 99 0.0 1.6 0.00 0.00 0.00 87 1003.5
20260507135029 11 99 0.0 3.2 0.00 0.00 0.00 88 1003.4
20260507135025 11 99 0.0 1.6 0.00 0.00 0.00 88 1003.5
20260507134025 11 99 0.0 3.2 0.00 0.00 0.00 87 1003.4
20260507133525 11 99 1.6 3.2 0.00 0.00 0.00 87 1003.2
20260507133026 11 100 1.6 4.8 0.00 0.00 0.00 87 1003.2
20260507132524 11 107 1.6 4.8 0.00 0.00 0.00 87 1003.2
20260507132024 11 90 1.6 4.8 0.00 0.00 0.00 87 1003.1
20260507131525 11 131 1.6 3.2 0.00 0.00 0.00 87 1003.2
20260507131025 10 138 0.0 3.2 0.00 0.00 0.00 87 1003.2
20260507130526 10 65 0.0 1.6 0.00 0.00 0.00 87 1003.2
20260507130025 10 65 0.0 3.2 0.00 0.00 0.00 87 1003.2
20260507125525 11 65 0.0 3.2 0.00 0.00 0.00 87 1003.1
20260507125025 10 58 0.0 1.6 0.00 0.00 0.00 87 1003.1
20260507124525 10 42 0.0 0.0 0.00 0.00 0.00 87 1003.1
20260507124026 11 42 0.0 1.6 0.00 0.00 0.00 87 1003.1
20260507123529 11 42 1.6 4.8 0.00 0.00 0.00 87 1003.0
20260507123525 11 42 0.0 3.2 0.00 0.00 0.00 87 1003.0
20260507123139 11 67 3.2 4.8 0.00 0.00 0.00 86 1003.0
20260507122024 11 87 1.6 4.8 0.00 0.00 0.00 87 1003.0
20260507121525 11 83 1.6 4.8 0.00 0.00 0.00 87 1003.1
20260507121024 11 84 0.0 4.8 0.00 0.00 0.00 87 1003.1
20260507120524 11 101 0.0 0.0 0.00 0.00 0.00 87 1003.0
20260507120025 11 101 0.0 0.0 0.00 0.00 0.00 87 1003.0
20260507115524 11 101 0.0 0.0 0.00 0.00 0.00 87 1003.0
20260507115024 11 101 0.0 0.0 0.00 0.00 0.00 87 1003.0
20260507114524 11 101 0.0 0.0 0.00 0.00 0.00 86 1003.1
20260507114025 11 101 0.0 0.0 0.00 0.00 0.00 86 1003.0
20260507113526 11 101 0.0 1.6 0.00 0.00 0.00 86 1003.0
20260507113029 11 101 0.0 1.6 0.00 0.00 0.00 86 1003.1
20260507113025 11 101 0.0 1.6 0.00 0.00 0.00 86 1003.1
20260507112045 11 101 0.0 0.0 0.00 0.00 0.00 85 1003.1
20260507112040 11 101 0.0 1.6 0.00 0.00 0.00 86 1003.2
20260507111030 11 101 0.0 1.6 0.00 0.00 0.00 85 1003.3
20260507111024 11 101 0.0 0.0 0.00 0.00 0.00 85 1003.3
20260507110524 11 101 0.0 0.0 0.00 0.00 0.00 85 1003.3
20260507110137 11 101 0.0 1.6 0.00 0.00 0.00 85 1003.4
20260507105523 11 101 0.0 1.6 0.00 0.00 0.00 85 1003.4
20260507105135 11 101 0.0 1.6 0.00 0.00 0.00 85 1003.3
20260507104027 11 100 0.0 1.6 0.00 0.00 0.00 85 1003.4
20260507104023 11 101 0.0 1.6 0.00 0.00 0.00 85 1003.4
20260507103136 11 100 0.0 1.6 0.00 0.00 0.00 85 1003.4
20260507103027 11 100 0.0 1.6 0.00 0.00 0.00 85 1003.4
20260507103023 11 100 0.0 1.6 0.00 0.00 0.00 85 1003.4
20260507101528 11 100 1.6 3.2 0.00 0.00 0.00 85 1003.5
20260507101522 11 100 0.0 1.6 0.00 0.00 0.00 85 1003.5
20260507100523 11 100 1.6 3.2 0.00 0.00 0.00 85 1003.4
20260507100022 11 100 1.6 3.2 0.00 0.00 0.00 85 1003.5
20260507095525 11 98 1.6 4.8 0.00 0.00 0.00 85 1003.5
20260507095520 11 101 1.6 4.8 0.00 0.00 0.00 85 1003.5
20260507095020 11 107 1.6 4.8 0.00 0.00 0.00 85 1003.6
20260507094019 11 98 0.0 3.2 0.00 0.00 0.00 85 1003.6
20260507093517 11 98 0.0 3.2 0.00 0.00 0.00 85 1003.6
20260507093017 11 91 0.0 3.2 0.00 0.00 0.00 84 1003.6
20260507092516 12 92 0.0 3.2 0.00 0.00 0.00 84 1003.6
20260507092016 12 92 0.0 3.2 0.00 0.00 0.00 84 1003.7
20260507091514 12 92 0.0 3.2 0.00 0.00 0.00 84 1003.7
20260507091014 12 92 0.0 3.2 0.00 0.00 0.00 84 1003.8
20260507090514 12 92 0.0 3.2 0.00 0.00 0.00 84 1003.9
20260507090018 12 92 0.0 1.6 0.00 0.00 0.00 84 1004.0
20260507090014 12 92 0.0 3.2 0.00 0.00 0.00 84 1004.0
20260507085017 12 92 0.0 3.2 0.00 0.00 0.00 84 1004.2
20260507085012 12 92 0.0 1.6 0.00 0.00 0.00 84 1004.0
20260507084014 12 92 0.0 3.2 0.00 0.00 0.00 84 1004.2
20260507083512 12 92 0.0 3.2 0.00 0.00 0.00 84 1004.2
20260507083014 12 92 0.0 1.6 0.00 0.00 0.00 84 1004.2
20260507082512 12 92 0.0 3.2 0.00 0.00 0.00 84 1004.3
20260507082012 12 92 0.0 3.2 0.00 0.00 0.00 83 1004.3
20260507081510 12 92 0.0 1.6 0.00 0.00 0.00 83 1004.4
20260507081011 12 92 0.0 1.6 0.00 0.00 0.00 83 1004.5
20260507080516 12 92 0.0 3.2 0.00 0.00 0.00 83 1004.5
20260507080511 12 92 0.0 1.6 0.00 0.00 0.00 83 1004.5
20260507075510 12 92 0.0 3.2 0.00 0.00 0.00 83 1004.4
20260507075010 12 92 0.0 3.2 0.00 0.00 0.00 83 1004.4
20260507074519 12 92 0.0 3.2 0.00 0.00 0.00 83 1004.3
20260507074011 12 104 0.0 3.2 0.00 0.00 0.00 83 1004.3
20260507073516 12 106 0.0 3.2 0.00 0.00 0.00 82 1004.3
20260507073511 12 104 0.0 3.2 0.00 0.00 0.00 82 1004.2
20260507072509 12 104 0.0 3.2 0.00 0.00 0.00 82 1004.3
20260507072009 12 104 0.0 3.2 0.00 0.00 0.00 82 1004.4
20260507071613 12 104 0.0 1.6 0.00 0.00 0.00 83 1004.4
20260507071515 12 104 0.0 0.0 0.00 0.00 0.00 83 1004.4
20260507071511 12 104 0.0 3.2 0.00 0.00 0.00 82 1004.3
20260507070010 13 104 0.0 0.0 0.00 0.00 0.00 82 1004.4
20260507065506 13 104 0.0 0.0 0.00 0.00 0.00 82 1004.5
20260507065006 13 104 0.0 1.6 0.00 0.00 0.00 81 1004.5
20260507064514 13 104 0.0 1.6 0.00 0.00 0.00 81 1004.5
20260507064506 13 104 0.0 1.6 0.00 0.00 0.00 81 1004.5
20260507064007 13 104 0.0 0.0 0.00 0.00 0.00 81 1004.5
20260507063004 13 104 0.0 3.2 0.00 0.00 0.00 81 1004.6
20260507062504 13 104 1.6 3.2 0.00 0.00 0.00 81 1004.5
20260507062004 13 104 1.6 3.2 0.00 0.00 0.00 80 1004.6
20260507061504 13 117 0.0 3.2 0.00 0.00 0.00 80 1004.5
20260507061004 13 119 1.6 3.2 0.00 0.00 0.00 80 1004.7
20260507060505 13 119 1.6 3.2 0.00 0.00 0.00 80 1004.7
20260507060004 13 234 0.0 3.2 0.00 0.00 0.00 81 1004.7
20260507055504 13 267 0.0 1.6 0.00 0.00 0.00 81 1004.7
20260507055004 13 267 0.0 1.6 0.00 0.00 0.00 81 1004.6
20260507054502 13 267 0.0 1.6 0.00 0.00 0.00 81 1004.6
20260507054003 13 267 0.0 1.6 0.00 0.00 0.00 81 1004.6
20260507053503 13 267 0.0 1.6 0.00 0.00 0.00 81 1004.4
20260507053003 13 267 0.0 1.6 0.00 0.00 0.00 81 1004.5
20260507052502 14 267 0.0 1.6 0.00 0.00 0.00 81 1004.4
20260507052003 14 267 0.0 1.6 0.00 0.00 0.00 81 1004.5
20260507051502 14 267 0.0 0.0 0.00 0.00 0.00 81 1004.5
20260507051003 14 267 0.0 0.0 0.00 0.00 0.00 80 1004.5
20260507050508 14 267 0.0 0.0 0.00 0.00 0.00 79 1004.4
20260507050502 14 267 0.0 0.0 0.00 0.00 0.00 80 1004.4
20260507050003 14 267 0.0 0.0 0.00 0.00 0.00 79 1004.4
20260507044959 15 267 0.0 0.0 0.00 0.00 0.00 79 1004.4
20260507044459 15 267 0.0 0.0 0.00 0.00 0.00 79 1004.4
20260507044005 15 267 0.0 1.6 0.00 0.00 0.00 79 1004.4
20260507044000 15 267 0.0 0.0 0.00 0.00 0.00 79 1004.4
20260507043614 15 267 0.0 0.0 0.00 0.00 0.00 78 1004.4
20260507043000 15 267 0.0 1.6 0.00 0.00 0.00 78 1004.3
20260507042000 15 267 0.0 0.0 0.00 0.00 0.00 78 1004.3
20260507041500 15 267 0.0 0.0 0.00 0.00 0.00 77 1004.3
20260507041000 16 267 0.0 0.0 0.00 0.00 0.00 77 1004.3
20260507040458 16 267 0.0 0.0 0.00 0.00 0.00 77 1004.2
20260507040003 16 267 0.0 0.0 0.00 0.00 0.00 76 1004.2
20260507035959 16 267 0.0 0.0 0.00 0.00 0.00 76 1004.3
20260507034958 16 267 0.0 0.0 0.00 0.00 0.00 76 1004.1
20260507034458 16 267 0.0 0.0 0.00 0.00 0.00 76 1004.1
20260507033958 16 267 0.0 1.6 0.00 0.00 0.00 75 1004.1
20260507033459 16 267 0.0 1.6 0.00 0.00 0.00 75 1004.0
20260507032959 16 267 0.0 1.6 0.00 0.00 0.00 75 1004.0
20260507032456 16 267 0.0 0.0 0.00 0.00 0.00 74 1004.0
20260507031959 16 267 0.0 0.0 0.00 0.00 0.00 74 1003.9
20260507031955 17 267 0.0 0.0 0.00 0.00 0.00 73 1003.9
20260507030954 17 267 0.0 1.6 0.00 0.00 0.00 73 1003.8
20260507030455 17 267 0.0 1.6 0.00 0.00 0.00 73 1003.7
20260507025954 17 267 0.0 1.6 0.00 0.00 0.00 73 1003.6
20260507025454 17 266 0.0 1.6 0.00 0.00 0.00 72 1003.6
20260507024955 17 266 0.0 3.2 0.00 0.00 0.00 71 1003.6
20260507024454 17 266 0.0 3.2 0.00 0.00 0.00 71 1003.4
20260507023953 17 267 0.0 1.6 0.00 0.00 0.00 70 1003.4
20260507023454 17 267 0.0 1.6 0.00 0.00 0.00 70 1003.4
20260507022953 18 267 0.0 1.6 0.00 0.00 0.00 69 1003.4
20260507022452 18 267 0.0 3.2 0.00 0.00 0.00 69 1003.4
20260507021955 18 265 0.0 4.8 0.00 0.00 0.00 68 1003.4
20260507021952 18 267 0.0 3.2 0.00 0.00 0.00 69 1003.3
20260507020953 18 242 1.6 4.8 0.00 0.00 0.00 68 1003.3
20260507020454 18 266 1.6 4.8 0.00 0.00 0.00 68 1003.3
20260507015950 18 233 1.6 4.8 0.00 0.00 0.00 67 1003.1
20260507015451 18 296 1.6 4.8 0.00 0.00 0.00 68 1003.2
20260507014950 18 293 1.6 3.2 0.00 0.00 0.00 68 1003.2
20260507014448 19 279 1.6 4.8 0.00 0.00 0.00 67 1003.1
20260507013949 19 212 1.6 6.4 0.00 0.00 0.00 65 1003.1
20260507013447 19 235 1.6 6.4 0.00 0.00 0.00 65 1003.1
20260507012945 19 314 1.6 6.4 0.00 0.00 0.00 67 1003.1
20260507012445 19 251 1.6 6.4 0.00 0.00 0.00 66 1003.1
20260507011944 20 229 1.6 6.4 0.00 0.00 0.00 66 1003.1
20260507011449 20 271 1.6 4.8 0.00 0.00 0.00 66 1003.0
20260507011444 20 274 1.6 4.8 0.00 0.00 0.00 66 1003.0
20260507010441 20 237 3.2 11.3 0.00 0.00 0.00 66 1003.0
20260507005942 20 309 1.6 11.3 0.00 0.00 0.00 65 1003.1
20260507005440 20 279 3.2 6.4 0.00 0.00 0.00 65 1003.0
20260507004942 20 262 3.2 9.7 0.00 0.00 0.00 65 1003.0
20260507004441 21 230 3.2 9.7 0.00 0.00 0.00 65 1002.9
20260507003946 21 240 3.2 12.9 0.00 0.00 0.00 65 1003.0
20260507003942 21 297 3.2 11.3 0.00 0.00 0.00 65 1002.9
20260507002938 21 285 3.2 12.9 0.00 0.00 0.00 64 1002.9
20260507002438 21 259 3.2 4.8 0.00 0.00 0.00 65 1002.9
20260507001937 21 245 3.2 6.4 0.00 0.00 0.00 64 1002.8
20260507001437 21 242 3.2 11.3 0.00 0.00 0.00 62 1002.8
20260507000937 21 319 3.2 12.9 0.00 0.00 0.00 61 1002.7
20260507000438 22 229 3.2 12.9 0.00 0.00 0.00 59 1002.7
20260506235937 22 202 3.2 11.3 0.00 0.00 0.00 60 1002.7
20260506235439 22 260 3.2 6.4 0.00 0.00 0.00 61 1002.7
20260506234939 21 323 3.2 11.3 0.00 0.00 0.00 61 1002.7
20260506234437 21 310 3.2 11.3 0.00 0.00 0.00 61 1002.7
20260506233938 21 262 3.2 6.4 0.00 0.00 0.00 61 1002.7
20260506233438 21 216 3.2 9.7 0.00 0.00 0.00 61 1002.7
20260506232937 21 204 3.2 9.7 0.00 0.00 0.00 59 1002.7
20260506232437 21 223 3.2 8.0 0.00 0.00 0.00 58 1002.7
20260506231938 21 193 3.2 9.7 0.00 0.00 0.00 58 1002.7
20260506231437 21 200 3.2 9.7 0.00 0.00 0.00 58 1002.6
20260506230938 21 225 3.2 9.7 0.00 0.00 0.00 58 1002.8
20260506230437 21 198 3.2 9.7 0.00 0.00 0.00 59 1002.9
20260506225938 21 292 3.2 6.4 0.00 0.00 0.00 59 1003.0
20260506225438 20 227 3.2 6.4 0.00 0.00 0.00 60 1002.9
20260506224937 20 203 3.2 6.4 0.00 0.00 0.00 60 1003.0
20260506224438 20 240 3.2 6.4 0.00 0.00 0.00 62 1003.1
20260506223938 20 252 3.2 8.0 0.00 0.00 0.00 63 1003.2
20260506223438 20 204 3.2 11.3 0.00 0.00 0.00 65 1003.3
20260506222938 20 248 3.2 11.3 0.00 0.00 0.00 66 1003.4
20260506222444 20 246 3.2 11.3 0.00 0.00 0.00 66 1003.4
20260506222440 20 233 3.2 11.3 0.00 0.00 0.00 65 1003.4
20260506221438 20 235 3.2 6.4 0.00 0.00 0.00 67 1003.5
20260506220937 20 223 3.2 8.0 0.00 0.00 0.00 65 1003.5
20260506220437 20 292 3.2 8.0 0.00 0.00 0.00 63 1003.7
20260506215936 20 252 3.2 9.7 0.00 0.00 0.00 62 1003.8
20260506215435 20 271 3.2 9.7 0.00 0.00 0.00 61 1003.7
20260506214936 20 294 3.2 9.7 0.00 0.00 0.00 59 1003.7
20260506214433 20 207 3.2 12.9 0.00 0.00 0.00 64 1003.8
20260506213933 20 217 4.8 12.9 0.00 0.00 0.00 63 1003.8
20260506213431 20 206 4.8 11.3 0.00 0.00 0.00 65 1004.0
20260506212933 20 207 3.2 11.3 0.00 0.00 0.00 64 1004.0
20260506212429 20 309 3.2 11.3 0.00 0.00 0.00 67 1004.1
20260506211929 20 217 3.2 8.0 0.00 0.00 0.00 67 1004.1
20260506211431 20 234 3.2 9.7 0.00 0.00 0.00 68 1004.1
20260506210930 20 204 3.2 9.7 0.00 0.00 0.00 67 1004.2
20260506210433 20 232 3.2 12.9 0.00 0.00 0.00 67 1004.3
20260506210429 20 211 3.2 12.9 0.00 0.00 0.00 69 1004.2
20260506205427 20 296 3.2 12.9 0.00 0.00 0.00 69 1004.3
20260506204927 20 228 3.2 12.9 0.00 0.00 0.00 68 1004.3
20260506204427 20 317 3.2 8.0 0.00 0.00 0.00 66 1004.3
20260506203927 20 242 3.2 9.7 0.00 0.00 0.00 68 1004.3
20260506203433 20 287 3.2 9.7 0.00 0.00 0.00 68 1004.4
20260506203428 20 223 3.2 9.7 0.00 0.00 0.00 66 1004.3
20260506202427 20 215 3.2 9.7 0.00 0.00 0.00 67 1004.3
20260506201931 19 293 4.8 12.9 0.00 0.00 0.00 67 1004.4
20260506201927 19 297 3.2 9.7 0.00 0.00 0.00 69 1004.4
20260506200931 20 227 3.2 9.7 0.00 0.00 0.00 67 1004.5
20260506200925 19 296 3.2 12.9 0.00 0.00 0.00 67 1004.5
20260506195925 20 231 3.2 8.0 0.00 0.00 0.00 66 1004.6
20260506195426 20 218 3.2 8.0 0.00 0.00 0.00 67 1004.7
20260506194928 20 226 3.2 9.7 0.00 0.00 0.00 68 1004.8
20260506194425 20 210 3.2 9.7 0.00 0.00 0.00 68 1004.8
20260506193925 19 219 3.2 11.3 0.00 0.00 0.00 69 1004.9
20260506193425 20 241 3.2 11.3 0.00 0.00 0.00 68 1004.9
20260506192925 20 256 3.2 9.7 0.00 0.00 0.00 67 1005.0
20260506192427 20 207 3.2 8.0 0.00 0.00 0.00 68 1005.1
20260506191925 20 230 3.2 6.4 0.00 0.00 0.00 68 1005.1
20260506191426 20 222 3.2 6.4 0.00 0.00 0.00 68 1005.1
20260506190925 19 192 3.2 6.4 0.00 0.00 0.00 68 1005.2
20260506190427 19 254 3.2 9.7 0.00 0.00 0.00 70 1005.2
20260506185925 19 200 3.2 9.7 0.00 0.00 0.00 70 1005.2
20260506185432 19 272 3.2 8.0 0.00 0.00 0.00 68 1005.4
20260506185425 19 221 3.2 8.0 0.00 0.00 0.00 69 1005.2
20260506184925 19 234 3.2 8.0 0.00 0.00 0.00 69 1005.3
20260506184424 19 312 3.2 8.0 0.00 0.00 0.00 70 1005.4
20260506183423 19 267 3.2 8.0 0.00 0.00 0.00 70 1005.5
20260506182925 19 240 3.2 8.0 0.00 0.00 0.00 69 1005.5
20260506182423 19 210 3.2 8.0 0.00 0.00 0.00 70 1005.5
20260506181923 18 190 3.2 8.0 0.00 0.00 0.00 70 1005.5
20260506181424 19 234 3.2 11.3 0.00 0.00 0.00 68 1005.5
20260506180923 19 154 3.2 11.3 0.00 0.00 0.00 70 1005.5
20260506180422 19 213 3.2 6.4 0.00 0.00 0.00 70 1005.5
20260506175924 18 113 3.2 8.0 0.00 0.00 0.00 69 1005.6
20260506175428 19 247 1.6 6.4 0.00 0.00 0.00 70 1005.4
20260506175422 18 207 3.2 8.0 0.00 0.00 0.00 70 1005.5
20260506174922 18 328 3.2 6.4 0.00 0.00 0.00 70 1005.5
20260506173922 18 234 1.6 6.4 0.00 0.00 0.00 70 1005.5
20260506173424 18 231 1.6 8.0 0.00 0.00 0.00 69 1005.4
20260506172923 18 226 3.2 8.0 0.00 0.00 0.00 70 1005.4
20260506172421 18 255 1.6 6.4 0.00 0.00 0.00 70 1005.5
20260506171921 18 213 1.6 4.8 0.00 0.00 0.00 71 1005.5
20260506171421 18 222 1.6 4.8 0.00 0.00 0.00 70 1005.6
20260506170921 18 229 1.6 6.4 0.00 0.00 0.00 69 1005.6
20260506170420 18 238 1.6 6.4 0.00 0.00 0.00 69 1005.6
20260506165918 18 300 1.6 6.4 0.00 0.00 0.00 70 1005.6
20260506165420 18 234 1.6 6.4 0.00 0.00 0.00 70 1005.7
20260506164920 18 249 3.2 6.4 0.00 0.00 0.00 71 1005.7
20260506164419 18 254 3.2 8.0 0.00 0.00 0.00 71 1005.7
20260506163919 18 216 1.6 8.0 0.00 0.00 0.00 70 1005.7
20260506163419 18 156 0.0 3.2 0.00 0.00 0.00 71 1005.7
20260506162930 18 260 1.6 3.2 0.00 0.00 0.00 71 1005.7
20260506162418 18 297 1.6 4.8 0.00 0.00 0.00 70 1005.7
20260506161919 18 273 1.6 4.8 0.00 0.00 0.00 70 1005.7
20260506161419 18 294 1.6 4.8 0.00 0.00 0.00 71 1005.7
20260506160920 18 228 1.6 4.8 0.00 0.00 0.00 71 1005.7
20260506160419 18 205 1.6 4.8 0.00 0.00 0.00 72 1005.6
20260506155924 17 126 1.6 4.8 0.00 0.00 0.00 73 1005.6
20260506155919 17 249 1.6 4.8 0.00 0.00 0.00 71 1005.6
20260506154919 17 137 1.6 4.8 0.00 0.00 0.00 73 1005.6
20260506154419 17 99 1.6 4.8 0.00 0.00 0.00 75 1005.6
20260506153922 16 120 1.6 4.8 0.00 0.00 0.00 75 1005.6
20260506153424 16 60 1.6 6.4 0.00 0.00 0.00 76 1005.6
20260506153419 16 93 1.6 6.4 0.00 0.00 0.00 76 1005.6
20260506152417 15 134 1.6 6.4 0.00 0.00 0.00 75 1005.6
20260506151917 15 134 1.6 6.4 0.00 0.00 0.00 75 1005.7
20260506151419 15 175 1.6 4.8 0.00 0.00 0.00 76 1005.7
20260506150918 14 161 1.6 4.8 0.00 0.00 0.00 78 1005.7
20260506150421 13 134 4.8 6.4 0.00 0.00 0.00 78 1005.7
20260506150417 14 134 3.2 6.4 0.00 0.00 0.00 78 1005.8
20260506150031 13 144 3.2 8.0 0.00 0.00 0.00 79 1005.7
20260506144915 13 142 4.8 8.0 0.00 0.00 0.00 79 1005.6
20260506144420 12 146 3.2 6.4 0.00 0.00 0.00 80 1005.7
20260506144415 12 143 3.2 8.0 0.00 0.00 0.00 79 1005.7